EHI
0 0 0 0 0 0 0 0 0 0 0 0 0 0 0 0 0 0 0 0 0 0 0 0 0 0 0 0 0 0 0 0 0 0 0 0 0 0 0 0 0 0 0
0 0 0 0 0 0 0 0 0 0 0 0 0 0 0 0 0 0 0 0 0 0 0 0 0 0 0 0 0 0 0 0 0 0 0 0 0 0 0 0 0 0 0
0 0 0 0 0 0 0 0 0 0 0 0 0 0 0 0 0 0 0 0 0 0 0 0 0 0 0 0 0 0 0 0 0 0 0 0 0 0 0 0 0 0 0
0 0 0 0 0 0 0 0 0 0 0 0 0 0 0 0 0 0 0 0 0 0 0 0 0 0 0 0 0 0 0 0 0 0 0 0 0 0 0 0 0 0 0
0 0 0 0 0 0 0 0 0 0 0 0 0 0 0 0 0 0 0 0 0 0 0 0 0 0 0 0 0 0 0 0 0 0 0 0 0 0 0 0 0 0 0
0 0 0 0 0 0 0 0 0 0 0 0 0 0 0 0 0 0 0 0 0 0 0 0 0 0 0 0 0 0 0 0 0 0 0 0 0 0 0 0 0 0 0
0 0 0 0 0 0 0 0 0 0 0 0 0 0 0 0 0 0 0 0 0 0 0 0 0 0 0 0 0 0 0 0 0 0 0 0 0 0 0 0 0 0 0
0 0 0 0 0 0 0 0 0 0 0 0 0 0 0 0 0 0 0 0 0 0 0 0 0 0 0 0 0 0 0 0 0 0 0 0 0 0 0 0 0 0 0
0 0 0 0 0 0 0 0 0 0 0 0 0 0 0 0 0 0 0 0 0 0 0 0 0 0 0 0 0 0 0 0 0 0 0 0 0 0 0 0 0 0 0
0 0 0 0 0 0 0 0 0 0 0 0 0 0 0 0 0 0 0 0 0 0 0 0 0 0 0 0 0 0 0 0 0 0 0 0 0 0 0 0 0 0 0
0 0 0 0 0 0 0 0 0 0 0 0 0 0 0 0 0 0 0 0 0 0 0 0 0 0 0 0 0 0 0 0 0 0 0 0 0 0 0 0 0 0 0
0 0 0 0 0 0 0 0 0 0 0 0 0 0 0 0 0 0 0 0 0 0 0 0 0 0 0 0 0 0 0 0 0 0 0 0 0 0 0 0 0 0 0
0 0 0 0 0 0 0 0 0 0 0 0 0 0 0 0 0 0 0 0 0 0 0 0 0 0 0 0 0 0 0 0 0 0 0 0 0 0 0 0 0 0 0
0 0 0 0 0 0 0 0 0 0 0 0 0 0 0 0 0 0 0 0 0 0 0 0 0 0 0 0 0 0 0 0 0 0 0 0 0 0 0 0 0 0 0
0 0 0 0 0 0 0 0 0 0 0 0 0 0 0 0 0 0 0 0 0 0 0 0 0 0 0 0 0 0 0 0 0 0 0 0 0 0 0 0 0 0 0
0 0 0 0 0 0 0 0 0 0 0 0 0 0 0 0 0 0 0 0 0 0 0 0 0 0 0 0 0 0 0 0 0 0 0 0 0 0 0 0 0 0 0
0 0 0 0 0 0 0 0 0 0 0 0 0 0 0 0 0 0 0 0 0 0 0 0 0 0 0 0 0 0 0 0 0 0 0 0 0 0 0 0 0 0 0
0 0 0 0 0 0 0 0 0 0 0 0 0 0 0 0 0 0 0 0 0 0 0 0 0 0 0 0 0 0 0 0 0 0 0 0 0 0 0 0 0 0 0
0 0 0 0 0 0 0 0 0 0 0 0 0 0 0 0 0 0 0 0 0 0 0 0 0 0 0 0 0 0 0 0 0 0 0 0 0 0 0 0 0 0 0
0 0 0 0 0 0 0 0 0 0 0 0 0 0 0 0 0 0 0 0 0 0 0 0 0 0 0 0 0 0 0 0 0 0 0 0 0 0 0 0 0 0 0
0 0 0 0 0 0 0 0 0 0 0 0 0 0 0 0 0 0 0 0 0 0 0 0 0 0 0 0 0 0 0 0 0 0 0 0 0 0 0 0 0 0 0
0 0 0 0 0 0 0 0 0 0 0 0 0 0 0 0 0 0 0 0 0 0 0 0 0 0 0 0 0 0 0 0 0 0 0 0 0 0 0 0 0 0 0
0 0 0 0 0 0 0 0 0 0 0 0 0 0 0 0 0 0 0 0 0 0 0 0 0 0 0 0 0 0 0 0 0 0 0 0 0 0 0 0 0 0 0
0 0 0 0 0 0 0 0 0 0 0 0 0 0 0 0 0 0 0 0 0 0 0 0 0 0 0 0 0 0 0 0 0 0 0 0 0 0 0 0 0 0 0
0 0 0 0 0 0 0 0 0 0 0 0 0 0 0 0 0 0 0 0 0 0 0 0 0 0 0 0 0 0 0 0 0 0 0 0 0 0 0 0 0 0 0
0 0 0 0 0 0 0 0 0 0 0 0 0 0 0 0 0 0 0 0 0 0 0 0 0 0 0 0 0 0 0 0 0 0 0 0 0 0 0 0 0 0 0
Wind_Speed
4 4 4 4 4 4 4 4 4 4 4 5 5 5 6 6 5 5 6 6 7 6 6 6 6 5 4 4 4 4 3 2 1 1 2 3 4 4 4 4 4 4 5
4 4 4 4 4 5 5 4 4 5 5 5 5 6 6 6 6 7 7 7 7 7 7 7 6 5 6 5 4 4 4 3 2 1 2 3 4 3 4 4 4 4 4
4 4 4 4 4 4 4 4 5 5 5 5 6 6 6 6 7 7 7 8 8 7 7 7 6 5 6 4 5 4 3 4 3 2 2 2 2 3 3 3 4 4 4
4 4 4 4 4 4 4 4 5 5 5 5 6 6 6 6 7 7 7 7 7 7 7 6 5 5 4 4 4 4 4 4 4 3 2 2 2 3 3 3 3 3 3
5 4 4 4 4 4 4 5 5 5 6 5 5 5 5 5 5 6 6 7 7 7 7 6 6 7 8 6 4 3 4 3 3 3 2 2 2 3 2 2 2 3 2
5 5 4 4 4 4 4 4 5 5 5 5 6 5 5 5 10 11 8 6 6 6 5 5 5 7 9 10 10 9 6 4 2 2 2 2 2 1 1 2 2 3 3
6 5 5 5 5 5 5 5 5 4 5 5 5 5 5 6 11 11 11 6 5 5 4 4 4 4 6 4 7 9 9 9 6 2 1 0 1 1 1 1 1 1 2
6 6 6 6 5 5 5 5 4 4 4 4 4 4 4 5 9 10 10 6 4 4 3 3 2 3 2 3 3 4 4 4 4 2 1 1 2 2 2 2 2 2 3
7 6 6 6 6 6 5 5 4 4 3 3 3 3 4 3 6 8 8 3 3 3 2 2 2 2 4 5 3 3 3 3 5 5 4 3 4 4 2 1 1 2 3
7 7 6 6 6 6 5 5 3 4 3 3 3 2 2 2 3 6 7 2 2 1 2 2 4 3 4 4 2 1 1 2 2 3 4 5 5 5 6 2 1 1 1
6 6 6 6 6 6 5 4 4 4 4 3 2 1 1 1 2 2 5 2 2 1 0 1 2 5 4 4 2 1 1 0 1 1 1 2 2 2 2 2 0 2 2
7 7 6 6 5 5 5 4 4 5 4 3 2 1 1 1 1 1 1 2 3 2 1 1 3 5 4 4 3 2 3 3 1 1 1 1 2 2 2 3 3 3 4
7 7 6 6 5 5 6 6 4 4 3 3 3 2 2 1 2 3 2 2 1 1 2 3 4 4 3 3 3 3 3 1 0 1 1 2 2 2 2 2 3 3 5
8 7 6 6 5 5 4 5 5 5 4 4 4 3 3 2 2 2 2 2 2 1 1 2 3 3 2 2 2 2 1 1 1 1 2 2 2 2 2 2 2 3 3
7 7 6 6 6 5 5 5 5 5 6 6 5 4 4 4 5 7 4 3 3 3 2 1 0 1 1 1 1 1 1 1 1 1 2 2 3 3 3 2 2 2 3
7 7 6 5 5 5 4 3 7 8 10 11 9 7 6 8 7 8 8 7 7 6 2 1 2 2 2 2 2 2 2 2 2 2 2 3 3 4 4 3 3 3 4
8 7 6 6 5 5 5 5 4 5 8 10 11 12 10 9 9 9 8 8 8 6 3 2 3 3 3 3 3 3 3 3 2 3 3 4 4 4 4 4 4 4 5
8 9 8 6 6 6 6 5 4 4 4 4 7 11 12 11 11 10 9 6 4 4 3 4 4 4 4 4 4 4 3 3 3 3 4 4 4 4 4 5 4 5 6
8 6 6 6 6 6 5 5 5 5 5 4 3 5 9 10 11 11 9 4 4 4 4 5 5 4 4 4 4 4 4 4 4 4 4 5 4 4 5 5 5 9 9
7 11 9 6 6 6 6 6 6 6 6 5 6 5 3 4 4 5 5 4 5 5 5 5 5 5 5 5 4 4 4 4 5 5 5 5 5 5 6 7 6 6 7
6 7 12 7 6 7 7 7 7 6 6 7 6 7 9 6 6 6 6 6 6 7 6 6 5 5 5 5 5 5 6 5 5 5 5 5 5 5 6 6 7 7 7
5 5 6 7 6 7 7 7 7 7 7 8 6 6 12 7 6 6 6 7 7 6 6 6 5 5 6 6 6 6 6 6 6 6 6 5 5 6 6 7 7 7 8
5 6 6 6 6 9 8 7 7 7 7 7 6 6 6 7 7 7 7 7 6 6 6 6 6 6 6 6 6 6 7 7 6 6 6 6 6 6 7 8 9 9 9
6 6 6 6 6 6 7 7 7 7 7 7 7 7 7 7 7 8 7 6 6 6 6 6 7 8 9 7 6 6 7 7 6 6 8 8 8 7 8 8 9 11 11
5 6 6 6 6 6 7 7 7 7 7 7 7 7 7 7 7 7 6 6 6 6 7 7 6 7 9 10 9 7 11 15 13 9 8 8 9 9 9 10 10 11 11
5 6 6 5 6 6 6 7 7 7 7 7 7 7 6 7 7 6 6 6 6 6 7 6 8 9 9 8 10 12 15 16 16 16 10 8 9 9 10 10 12 12 12
Wind_Direction
92 84 80 70 66 66 63 54 48 45 42 46 48 51 50 45 43 56 60 59 66 61 54 61 57 49 49 38 36 37 32 31 102 66 43 16 19 18 16 24 33 31 21
110 99 89 80 74 70 65 56 55 56 51 52 55 59 58 54 52 60 65 62 66 64 58 59 54 55 53 42 42 41 34 26 61 73 36 21 25 16 18 26 28 31 22
119 110 98 88 83 78 73 67 64 65 61 59 61 65 62 60 62 64 71 71 68 65 62 63 58 61 59 49 48 44 34 33 41 77 53 28 23 21 25 28 28 15 11
129 121 113 106 102 95 88 78 72 71 69 66 68 71 71 70 68 71 74 75 72 65 59 57 55 62 69 62 54 45 46 47 48 61 56 33 26 14 31 20 10 2 356
137 132 129 123 114 105 95 85 77 74 73 69 71 73 81 84 81 81 77 79 76 68 55 46 48 59 68 69 67 55 54 56 53 54 45 31 19 14 11 354 358 337 338
146 146 142 136 126 116 108 98 89 80 73 68 63 62 63 79 94 93 90 77 73 70 60 45 46 47 53 55 59 57 60 67 64 62 47 42 2 346 340 352 356 4 335
155 155 154 149 140 133 124 114 104 95 87 76 64 61 60 78 90 92 91 86 77 69 62 49 42 40 47 44 49 47 42 49 62 106 100 67 287 286 317 332 329 294 274
162 164 163 157 149 141 133 128 119 106 98 86 73 65 61 73 91 96 97 87 80 70 61 56 43 11 30 81 68 47 33 25 37 65 140 227 244 246 220 222 247 281 279
171 173 171 164 158 153 151 145 133 123 112 101 91 78 67 58 88 105 106 95 81 60 39 35 26 346 11 68 82 53 26 2 17 30 29 18 2 355 16 72 355 350 321
179 174 168 165 163 162 159 149 137 135 132 122 106 91 75 32 80 112 117 115 98 68 27 8 5 356 4 38 105 81 359 327 356 7 15 16 18 15 28 52 140 165 281
166 161 162 164 163 159 152 147 145 141 135 132 128 106 59 18 29 99 135 142 153 147 62 341 324 343 355 359 27 172 292 32 72 18 358 356 2 7 9 6 355 187 217
158 161 163 163 163 158 155 155 153 151 153 161 161 192 251 307 322 302 175 171 169 166 222 264 290 325 346 354 357 327 359 52 65 18 352 337 335 331 325 317 301 268 240
161 166 166 165 166 163 167 168 162 165 170 180 183 208 233 235 272 279 274 271 242 187 233 272 304 330 3 360 343 360 36 54 29 335 314 299 285 282 287 296 293 283 275
169 172 169 170 173 174 176 177 176 181 185 189 197 212 223 232 239 245 257 276 278 273 270 296 324 338 359 335 348 10 15 279 258 265 281 284 287 284 288 294 295 305 302
173 175 177 178 178 182 187 194 192 199 192 192 202 201 202 224 234 226 212 213 215 229 223 190 245 300 304 297 285 276 275 300 305 277 276 287 292 294 291 287 275 277 273
179 183 183 182 183 184 186 205 224 216 223 223 216 209 221 230 241 239 239 242 247 251 225 198 232 241 249 256 263 270 264 260 258 261 268 273 282 285 287 282 268 265 273
187 185 185 186 188 189 189 194 210 228 232 232 230 230 230 234 240 242 243 245 250 248 226 222 234 239 242 244 244 242 247 251 251 255 260 264 267 272 275 278 275 274 274
190 192 190 191 192 193 195 199 199 201 216 238 240 240 240 239 238 240 241 242 246 237 212 224 234 236 236 237 239 239 245 250 247 251 256 259 260 265 270 270 269 269 277
192 193 191 189 193 196 195 197 203 209 217 224 228 247 242 242 241 240 235 216 217 227 226 230 231 232 234 233 235 235 236 240 242 243 250 253 252 255 263 263 265 276 281
199 201 193 190 193 197 198 202 208 213 220 223 227 227 213 211 220 229 222 211 219 228 229 231 232 229 229 230 230 231 235 239 241 241 244 247 247 249 257 262 264 269 270
196 201 200 197 200 201 203 208 210 213 219 225 230 225 213 209 220 222 221 220 223 227 228 229 230 228 227 224 223 227 232 238 237 237 242 244 244 251 254 257 262 264 268
194 197 197 201 203 206 209 210 210 215 222 229 233 233 235 225 219 225 226 227 225 224 222 221 225 225 221 218 218 222 231 238 238 235 239 242 243 249 254 257 261 265 267
196 199 204 207 207 216 218 214 215 219 224 226 227 225 223 224 226 227 230 229 225 225 221 219 226 232 227 221 215 215 226 235 233 227 235 243 244 247 251 256 260 263 265
202 205 208 210 210 213 218 220 220 222 226 227 227 228 228 227 229 231 230 228 225 226 223 221 226 232 233 229 224 222 228 235 231 231 232 240 246 250 252 255 258 261 264
207 211 214 214 214 216 220 223 225 225 227 229 229 231 231 230 232 234 231 227 227 231 231 227 228 233 237 235 233 232 242 249 247 239 232 236 244 247 252 256 260 263 263
215 218 221 220 220 221 223 226 228 227 228 230 231 231 230 231 233 234 231 228 230 233 235 232 231 233 237 239 241 245 253 257 258 256 251 246 246 250 251 257 260 262 265